Regional Weather Roundup
Issued by NWS

Home | Current Version | Previous Version | Graphics & Text | Print | Product List | Glossary On
Versions: 1 2 3 4 5 6 7 8 9 10 11 12 13 14 15 16 17 18 19 20 21 22 23 24 25 26 27 28 29 30 31 32 33 34 35 36 37 38 39 40 41 42 43 44 45 46 47 48 49 50
000
ASUS43 KMPX 021201
RWRMN
WEATHER ROUNDUP FOR MINNESOTA
NATIONAL WEATHER SERVICE TWIN CITIES/CHANHASSEN MN
700 AM CDT THU JUL 02 2015


NOTE: "FAIR" INDICATES FEW OR NO CLOUDS BELOW 12,000 FEET WITH NO
SIGNIFICANT WEATHER AND/OR OBSTRUCTIONS TO VISIBILITY. N/A MEANS
CURRENT SKY AND/OR WEATHER CONDITIONS ARE NOT AVAILABLE.

MNZ060>063-068>070-021300-
   Twin Cities Metro

CITY           SKY/WX    TMP DP  RH WIND       PRES   REMARKS
TWIN CITIES    SUNNY     60  55  83 CALM      30.04S
6HR MIN TEMP:  56; 6HR MAX TEMP:  62;

ST PAUL        SUNNY     57  55  93 CALM      30.04F
CRYSTAL        SUNNY     57  53  86 CALM      30.03F
BLAINE         SUNNY     57  55  94 CALM      30.04F
LAKEVILLE      SUNNY     52  52 100 CALM      30.04F
EDEN PRAIRIE   SUNNY     56  53  90 CALM      30.03F
6HR MIN TEMP:  53; 6HR MAX TEMP:  59;

SOUTH ST PAUL  SUNNY     58  55  89 CALM      30.04F
LAKE ELMO      FAIR      54  54 100 CALM      30.05F
$$
MNZ001>005-007-008-013>017-022>024-027-028-021300-
   Northwest Minnesota

CITY           SKY/WX    TMP DP  RH WIND       PRES   REMARKS
BEMIDJI        SUNNY     58  55  89 CALM      30.01F
HALLOCK        SUNNY     59  55  88 S7        29.95R
ROSEAU         SUNNY     61  55  82 S6        29.97S
WARROAD        SUNNY     61  55  82 SW3       29.98S
THIEF RVR FALL SUNNY     57  54  88 S7        29.99S
CROOKSTON      SUNNY     57  55  94 S7        29.99R
FOSSTON        SUNNY     55  54  94 CALM      30.01S
DETROIT LAKES  SUNNY     61  55  82 S6        30.02S
MOORHEAD       SUNNY     57  54  88 SE7       30.00R
PARK RAPIDS    SUNNY     61  56  83 CALM      30.01F
$$
MNZ006-009>011-018-025>026-021300-
   North Central Minnesota

CITY           SKY/WX    TMP DP  RH WIND       PRES   REMARKS
BAUDETTE       SUNNY     61  55  81 W5        29.97S
FLAG ISLAND    LGT RAIN  64  57  77 SW13      29.94S
INTL FALLS     PTSUNNY   58  57  97 W5        29.99R
6HR MIN TEMP:  51; 6HR MAX TEMP:  58;

WASKISH        SUNNY     64  61  88 SW8       30.00S
BIG FORK       SUNNY     55  54  94 CALM      30.02S FOG
LONGVILLE      MOSUNNY   57  57 100 CALM      30.02F FOG
GRAND RAPIDS   CLOUDY    63  55  77 CALM      30.03S
CRANE LAKE     CLOUDY    54  54 100 SE1       30.01S
ORR            SUNNY     55  54  94 CALM      29.99R
COOK           SUNNY     55  55 100 CALM      30.02S
WALKER         PTSUNNY   57  56  95 CALM      30.02S
$$
MNZ012-019>021-037-021300-
   Northeast Minnesota

CITY           SKY/WX    TMP DP  RH WIND       PRES   REMARKS
DULUTH         PTSUNNY   59  53  80 S5        30.04R
6HR MIN TEMP:  53; 6HR MAX TEMP:  60;

ELY            MOSUNNY   52  50  93 CALM      30.02S
HIBBING        CLOUDY    53  52  96 CALM      30.04R
DULUTH HARBOR  MOSUNNY   61  55  82 CALM      30.04F
TWO HARBORS    PTSUNNY   57  52  82 CALM      30.02S
SILVER BAY     SUNNY     50  48  93 CALM      30.03R
GRAND MARAIS     N/A     51  48  89 SW3       30.01R
G MARAIS ARPRT SUNNY     54  46  76 SW5       30.04R
$$
MNZ029>031-032-039>041-046>048-054>057-064-021300-
   West Central Minnesota

CITY           SKY/WX    TMP DP  RH WIND       PRES   REMARKS
FERGUS FALLS   MOSUNNY   59  54  82 SE5       30.02R
WHEATON        SUNNY     52  52 100 SE7       30.02S
MORRIS         MOSUNNY   55  54  94 SE5       30.01R
ALEXANDRIA     SUNNY     58  53  84 S6        30.04R
ELBOW LAKE     FAIR      57  54  89 SE6       30.01S
WADENA           N/A     57  55  94 CALM      30.02R
GLENWOOD       SUNNY     55  54  94 CALM      30.04R
APPLETON       MOSUNNY   55  52  88 E3        30.02R
BENSON         MOSUNNY   55  52  88 S3        30.03R
ORTONVILLE     MOSUNNY   55  52  88 SE6       30.01S
MADISON        PTSUNNY   54  52  94 CALM      30.02R
WILLMAR        FAIR      55  54  94 CALM      30.05R
$$
MNZ033>034-036-042>043-049>051-058-059-021300-
   Central Minnesota

CITY           SKY/WX    TMP DP  RH WIND       PRES   REMARKS
ST CLOUD       SUNNY     54  53  97 CALM      30.03F
6HR MIN TEMP:  50; 6HR MAX TEMP:  54;

SAUK CENTRE    FAIR      53  53  99 CALM      30.04S FOG
PAYNESVILLE    SUNNY     50  50 100 CALM      30.05R
AITKIN         MOSUNNY   61  55  82 CALM      30.02F
PINE RIVER       N/A     57  55  94 CALM      30.05F
BRAINERD       MOSUNNY   61  57  87 CALM      30.03F
STAPLES        SUNNY     57  54  88 CALM      30.02S
LONG PRAIRIE   FAIR      54  52  94 CALM      30.04R
LITTLE FALLS   SUNNY     54  52  94 CALM      30.04S
LITCHFIELD     MOSUNNY   55  55 100 CALM      30.04S
BUFFALO        SUNNY     53  50  89 CALM      30.05S
MAPLE LAKE     SUNNY     54  53  97 CALM      30.05S
$$
MNZ037-044-045-052-053-021300-
   East Central Minnesota

CITY           SKY/WX    TMP DP  RH WIND       PRES   REMARKS
PRINCETON      SUNNY     55  54  94 CALM      30.04F
MORA           SUNNY     54  52  94 CALM      30.05F
CAMBRIDGE      SUNNY     59  52  77 CALM      30.03S
RUSH CITY      SUNNY     52  51  97 CALM      30.06S
MOOSE LAKE     CLOUDY    54  54 100 CALM      30.03S FOG
HINCKLEY       CLOUDY    54  54 100 CALM      30.05F
CLOQUET        CLOUDY    55  54  94 CALM      30.05S
MCGREGOR       MOSUNNY   57  55  94 CALM      30.04S
$$
MNZ071>073-080-081-089-090-097-098-021300-
   Southwest Minnesota

CITY           SKY/WX    TMP DP  RH WIND       PRES   REMARKS
MONTEVIDEO     MOSUNNY   55  55 100 S3        30.03R
GRANITE FALLS  PTSUNNY   54  52  92 CALM      30.04R
CANBY          PTSUNNY   52  51  95 SE3       30.03R FOG
MARSHALL       PTSUNNY   54  46  76 SE5       30.01S
REDWOOD FALLS  MOSUNNY   55  52  89 CALM      30.02F
OLIVIA         PTSUNNY   54  50  87 SE5       30.02S
PIPESTONE      CLOUDY    57  55  94 SE3       30.02R
WINDOM         MOSUNNY   55  52  88 CALM      30.02S
WORTHINGTON    CLOUDY    55  50  82 SE3       30.02S
JACKSON        PTSUNNY   54  50  87 E3        30.03R
TRACY          PTSUNNY   53  51  92 CALM      30.02F
SLAYTON        CLOUDY    56  55  97 CALM      30.03S
$$
MNZ065>067-074>077-082>085-091>093-021300-
   South Central Minnesota

CITY           SKY/WX    TMP DP  RH WIND       PRES   REMARKS
MANKATO        SUNNY     55  52  88 E6        30.04F
NEW ULM        MOSUNNY   54  52  94 E3        30.03F
ST JAMES       SUNNY     52  52 100 CALM      30.04F
FAIRMONT       SUNNY     52  46  82 CALM      30.03R
GLENCOE        SUNNY     53  51  94 CALM      30.03F
FARIBAULT      SUNNY     52  50  93 CALM      30.04F
OWATONNA       SUNNY     52  48  87 CALM      30.05S
WASECA         SUNNY     52  50  93 CALM      30.05F
ALBERT LEA     SUNNY     52  50  93 CALM      30.05S
$$
MNZ078>079-086>088-094>096-021300-
   Southeast Minnesota

CITY           SKY/WX    TMP DP  RH WIND       PRES   REMARKS
ROCHESTER      SUNNY     55  51  86 N5        30.06S
6HR MIN TEMP:  50; 6HR MAX TEMP:  56; 6HR PCP: TRACE;

RED WING       SUNNY     54  54 100 CALM      30.04S FOG
DODGE CENTER   SUNNY     54  52  94 CALM      30.05S
WINONA         FOG       54  54 100 CALM      30.05S VSB<1/4
AUSTIN         SUNNY     50  48  93 CALM      30.05S
PRESTON        SUNNY     51  49  93 CALM      30.05S
$$
ABBREVIATIONS USED IN REMARKS
   TC - TEMPERATURES IN CELSIUS
  WCI - WIND CHILL INDEX
   HX - HEAT INDEX
  VSB - VISIBILITY
$$


USA.gov is the U.S. government's official web portal to all federal, state and local government web resources and services.